Location: Unspecified
(51.5147°N, 7.4673°E)
Time: 06:57:10
(UTC+01:00)

A-11 Canister half - Pass Details

Date: 25 February 2026
Orbit: 1524 x 1683 km, 47.3° (Epoch: 14 March)

Event Time Altitude Azimuth Distance (km) Brightness Sun altitude
Rises 21:44:37 0° 287° (WNW) 4,682 12.5 -33.9°
Reaches altitude 10° 21:48:20 10° 275° (W) 3,693 11.6 -34.4°
Maximum altitude 21:55:20 25° 225° (SW) 2,703 10.3 -35.3°
Enters shadow 21:57:12 23° 208° (SSW) 2,786 10.2 -35.5°
